User: anonymous   Login
Location: Carlisle
(34.5501°N, 84.5969°W)
Time: 09:20:02
(UTC+00:00)
Language:

CAS-4A - Orbit

View from above orbital plane
View from above orbital plane
View from above satellite
View from above satellite

Ground track
Ground track

The orbit data is extracted from the following two-line orbital elements,

1 42761U 17034D   24063.55101188  .00012925  00000-0  52942-3 0  9993
2 42761  43.0103 100.0933 0011051   4.9278 355.1680 15.24154785371266
Epoch (UTC): 03 March 2024 13:13:27
Eccentricity: 0.0011051
inclination: 43.0103°
perigee height: 486 km
apogee height: 501 km
right ascension of ascending node: 100.0933°
argument of perigee: 4.9278°
revolutions per day: 15.24154785
mean anomaly at epoch: 355.1680°
orbit number at epoch: 37126

The dashed part of the orbit path shows where the satellite is in the earth's shadow,  

DLR